This is the latest recevied weather packets stored in our database for station/object KD5FHA. If no packets are shown the sender has not sent any weather packets the latest 10 day(s).
| Time | Temp. | Humidity | Pressure | Rain* | Wind** | Luminosity | Snow |
|---|---|---|---|---|---|---|---|
| 1777825323 | 23.89° C | 47% | 1022.2 hPa | 0 mm | - | 778 W/m² | - |
| 1777825019 | 24.44° C | 45% | 1022.4 hPa | 0 mm | - | 763 W/m² | - |
| 1777824714 | 23.89° C | 47% | 1022.5 hPa | 0 mm | - | 753 W/m² | - |
| 1777824412 | 23.33° C | 49% | 1022.5 hPa | 0 mm | - | 739 W/m² | - |
| 1777824107 | 23.89° C | 48% | 1022.3 hPa | 0 mm | - | 723 W/m² | - |
| 1777823804 | 23.33° C | 49% | 1022.4 hPa | 0 mm | - | 709 W/m² | - |
| 1777823502 | 22.78° C | 49% | 1022.3 hPa | 0 mm | - | 696 W/m² | - |
| 1777823198 | 22.78° C | 48% | 1022.4 hPa | 0 mm | - | 684 W/m² | - |
| 1777822897 | 22.78° C | 51% | 1022.4 hPa | 0 mm | - | 668 W/m² | - |
| 1777822594 | 22.78° C | 50% | 1022.4 hPa | 0 mm | - | 245 W/m² | - |
| 1777822291 | 22.22° C | 50% | 1022.5 hPa | 0 mm | - | 489 W/m² | - |
| 1777821989 | 22.22° C | 51% | 1022.4 hPa | 0 mm | - | 617 W/m² | - |
| 1777821687 | 22.78° C | 51% | 1022.5 hPa | 0 mm | - | 153 W/m² | - |
| 1777821384 | 22.22° C | 51% | 1022.6 hPa | 0 mm | - | 146 W/m² | - |
| 1777821081 | 21.67° C | 51% | 1022.5 hPa | 0 mm | - | 96 W/m² | - |
| 1777820777 | 21.67° C | 52% | 1022.3 hPa | 0 mm | - | 348 W/m² | - |
| 1777820473 | 21.11° C | 52% | 1022.4 hPa | 0 mm | - | 122 W/m² | - |
| 1777820171 | 21.67° C | 53% | 1022.4 hPa | 0 mm | - | 149 W/m² | - |
| 1777819868 | 21.11° C | 53% | 1022.5 hPa | 0 mm | - | 216 W/m² | - |
| 1777819565 | 21.11° C | 54% | 1022.4 hPa | 0 mm | - | 76 W/m² | - |
| 1777819262 | 21.11° C | 54% | 1022.2 hPa | 0 mm | - | 63 W/m² | - |
| 1777818959 | 21.11° C | 57% | 1022.2 hPa | 0 mm | - | 94 W/m² | - |
| 1777818656 | 20.56° C | 57% | 1022.4 hPa | 0 mm | - | 191 W/m² | - |
| 1777818354 | 20.56° C | 59% | 1022.4 hPa | 0 mm | - | 62 W/m² | - |
| 1777818050 | 20° C | 60% | 1022.3 hPa | 0 mm | - | 60 W/m² | - |
* Rain latest hour (hover to see other rain measurements)
** Current wind speed in m/s (hover to see current wind gust speed)